Date String (YYYY-MM-DD hh:mm:ss) UTC,Instrument flags,Ambient pressure (hPa),Sample flow (lpm),Bypass flow (lpm),Sample temperature (°C),Ambient temperature (°C),ASC tube jacket temperature (°C),LED temperature (°C),Box temperature (°C),Sample RH (%),Span deviation,Mass concentration (μg/m³),Mass concentration (μg/m³),Mass concentration (μg/m³)
DateTimeUTC,F1_M11,P_M11,Q1_M11,Q2_M11,T1_M11,T2_M11,T3_M11,T4_M11,T5_M11,U1_M11,ZSPAN_M11,X0_M11,X2_M11,X1_M11
2022-11-15 02:00:00,,0827.2,4.99,0.00,22.2,20.1,00.0,31.3,23.9,08.9,0002.2,0022.05,0007.27,0005.85
2022-11-15 02:01:00,,0827.2,4.99,0.00,22.1,20.1,00.0,31.3,23.8,08.8,0002.2,0021.31,0007.24,0005.85
2022-11-15 02:02:00,,0827.2,5.02,0.00,22.1,20.0,00.0,31.3,23.8,08.8,0002.4,0020.90,0007.17,0005.83
2022-11-15 02:03:00,,0827.2,5.00,0.00,22.0,19.9,00.0,31.2,23.7,08.8,0001.3,0020.08,0007.07,0005.80
2022-11-15 02:04:00,,0827.2,5.00,0.00,22.0,19.9,00.0,31.2,23.7,08.8,0000.9,0018.21,0006.96,0005.81
2022-11-15 02:05:00,,0827.2,4.99,0.00,21.9,19.8,00.0,31.2,23.6,08.8,0000.9,0016.73,0006.92,0005.83
2022-11-15 02:06:00,,0827.2,5.00,0.00,21.9,19.8,00.0,31.1,23.6,08.8,0001.3,0017.06,0006.95,0005.89
2022-11-15 02:07:00,,0827.2,5.02,0.00,21.9,19.8,00.0,31.1,23.6,08.9,0001.1,0016.93,0006.95,0005.89
2022-11-15 02:08:00,,0827.2,4.99,0.00,21.8,19.8,00.0,31.1,23.5,08.8,0001.4,0014.33,0006.95,0005.92
2022-11-15 02:09:00,,0827.2,4.99,0.00,21.8,19.8,00.0,31.0,23.5,08.9,0000.9,0014.18,0006.98,0005.97
2022-11-15 02:10:00,,0827.2,5.00,0.00,21.8,19.8,00.0,31.0,23.5,08.9,0000.9,0014.21,0007.00,0006.00
2022-11-15 02:11:00,,0827.2,5.01,0.00,21.8,19.8,00.0,31.0,23.5,08.9,0001.4,0014.38,0007.01,0006.01
2022-11-15 02:12:00,,0827.2,5.01,0.00,21.8,19.8,00.0,30.9,23.5,08.9,0001.3,0015.00,0006.97,0006.01
2022-11-15 02:13:00,,0827.3,4.99,0.00,21.7,19.8,00.0,30.9,23.5,09.0,0001.2,0014.66,0006.95,0006.01
2022-11-15 02:14:00,,0827.3,4.99,0.00,21.7,19.8,00.0,30.9,23.5,08.9,0001.8,0014.37,0006.89,0005.99
2022-11-15 02:15:00,,0827.4,5.01,0.00,21.7,19.8,00.0,30.9,23.5,09.0,0002.4,0014.57,0006.92,0005.98
2022-11-15 02:16:00,,0827.4,5.00,0.00,21.7,19.8,00.0,30.8,23.4,09.0,0002.1,0014.37,0006.96,0006.01
2022-11-15 02:17:00,,0827.4,4.99,0.00,21.7,19.8,00.0,30.8,23.4,09.0,0001.9,0013.89,0006.92,0006.00
2022-11-15 02:18:00,,0827.4,4.99,0.00,21.6,19.8,00.0,30.8,23.4,09.1,0002.3,0013.87,0006.92,0005.99
2022-11-15 02:19:00,,0827.4,5.01,0.00,21.6,19.7,00.0,30.8,23.4,09.1,0002.6,0014.46,0006.99,0006.00
2022-11-15 02:20:00,,0827.4,4.99,0.00,21.6,19.8,00.0,30.8,23.4,09.1,0002.9,0014.78,0007.01,0006.01
2022-11-15 02:21:00,,0827.4,4.98,0.00,21.6,19.8,00.0,30.7,23.4,09.1,0002.4,0015.08,0007.05,0006.06
2022-11-15 02:22:00,,0827.4,5.01,0.00,21.6,19.8,00.0,30.7,23.4,09.1,0002.5,0015.29,0007.09,0006.11
2022-11-15 02:23:00,,0827.4,5.00,0.00,21.6,19.8,00.0,30.7,23.4,09.1,0002.6,0014.74,0007.20,0006.19
2022-11-15 02:24:00,,0827.4,4.99,0.00,21.6,19.8,00.0,30.7,23.3,09.1,0002.3,0014.58,0007.27,0006.25
2022-11-15 02:25:00,,0827.4,5.00,0.00,21.6,19.8,00.0,30.7,23.3,09.1,0002.2,0014.60,0007.38,0006.35
2022-11-15 02:26:00,,0827.4,5.01,0.00,21.5,19.7,00.0,30.6,23.3,09.1,0002.1,0014.62,0007.47,0006.46
2022-11-15 02:27:00,,0827.4,4.99,0.00,21.5,19.7,00.0,30.6,23.3,09.1,0002.5,0014.75,0007.52,0006.53
2022-11-15 02:28:00,,0827.5,5.00,0.00,21.5,19.8,00.0,30.6,23.3,09.1,0002.7,0015.40,0007.62,0006.58
2022-11-15 02:29:00,,0827.5,5.01,0.00,21.5,19.8,00.0,30.6,23.3,09.1,0002.8,0015.67,0007.73,0006.66
2022-11-15 02:30:00,,0827.5,4.99,0.00,21.5,19.8,00.0,30.6,23.3,09.1,0002.4,0016.07,0007.74,0006.68
2022-11-15 02:31:00,,0827.5,4.99,0.00,21.5,19.8,00.0,30.6,23.3,09.1,0002.5,0015.86,0007.77,0006.70
2022-11-15 02:32:00,,0827.5,5.01,0.00,21.5,19.7,00.0,30.6,23.3,09.1,0002.8,0015.74,0007.75,0006.69
2022-11-15 02:33:00,,0827.5,5.01,0.00,21.5,19.7,00.0,30.5,23.3,09.2,0002.6,0016.88,0007.74,0006.69
2022-11-15 02:34:00,,0827.5,4.99,0.00,21.5,19.7,00.0,30.5,23.2,09.2,0002.9,0017.46,0007.66,0006.67
2022-11-15 02:35:00,,0827.5,5.00,0.00,21.5,19.7,00.0,30.5,23.2,09.2,0003.2,0018.12,0007.63,0006.68
2022-11-15 02:36:00,,0827.6,5.01,0.00,21.5,19.7,00.0,30.5,23.3,09.2,0003.5,0017.94,0007.59,0006.65
2022-11-15 02:37:00,,0827.6,4.99,0.00,21.5,19.8,00.0,30.5,23.2,09.2,0004.3,0018.10,0007.58,0006.60
2022-11-15 02:38:00,,0827.6,4.98,0.00,21.5,19.8,00.0,30.5,23.2,09.2,0004.4,0018.58,0007.60,0006.59
2022-11-15 02:39:00,,0827.6,5.01,0.00,21.4,19.7,00.0,30.5,23.2,09.3,0004.5,0018.07,0007.63,0006.63
2022-11-15 02:40:00,,0827.7,5.01,0.00,21.4,19.8,00.0,30.4,23.2,09.3,0004.2,0017.64,0007.61,0006.65
2022-11-15 02:41:00,,0827.7,5.00,0.00,21.4,19.8,00.0,30.4,23.2,09.3,0004.1,0016.59,0007.55,0006.67
2022-11-15 02:42:00,,0827.7,4.99,0.00,21.5,20.5,00.0,30.4,23.4,09.3,0003.9,0017.12,0007.54,0006.72
2022-11-15 02:43:00,,0827.7,5.00,0.00,21.6,21.4,00.0,30.3,23.6,09.4,0003.6,0017.06,0007.58,0006.77
2022-11-15 02:44:00,,0827.7,5.01,0.00,21.7,21.8,00.0,30.4,23.7,09.4,0004.0,0017.07,0007.62,0006.82
2022-11-15 02:45:00,,0827.8,5.01,0.00,21.7,21.5,00.0,30.5,23.8,09.5,0003.0,0016.88,0007.64,0006.85
2022-11-15 02:46:00,,0827.8,5.01,0.00,21.8,21.2,00.0,30.5,23.7,09.5,0003.1,0016.17,0007.73,0006.91
2022-11-15 02:47:00,,0827.9,5.00,0.00,21.7,21.0,00.0,30.5,23.6,09.6,0003.8,0016.04,0007.81,0006.96
2022-11-15 02:48:00,,0827.9,4.98,0.00,21.7,20.7,00.0,30.6,23.6,09.7,0003.2,0016.80,0007.78,0006.99
2022-11-15 02:49:00,,0827.9,5.00,0.00,21.7,20.6,00.0,30.6,23.6,09.8,0002.6,0016.38,0007.76,0007.02
2022-11-15 02:50:00,,0827.8,5.00,0.00,21.7,20.5,00.0,30.6,23.6,09.8,0001.8,0016.55,0007.73,0007.00
2022-11-15 02:51:00,,0827.9,5.00,0.00,21.7,20.5,00.0,30.6,23.6,09.8,0001.3,0016.74,0007.72,0006.96
2022-11-15 02:52:00,,0827.9,4.99,0.00,21.7,20.5,00.0,30.6,23.6,09.8,0002.0,0016.90,0007.74,0006.93
2022-11-15 02:53:00,,0827.9,4.99,0.00,21.7,20.4,00.0,30.6,23.5,09.7,0001.9,0016.73,0007.73,0006.87
2022-11-15 02:54:00,,0827.9,5.00,0.00,21.7,20.4,00.0,30.6,23.5,09.7,0002.0,0017.25,0007.72,0006.80
2022-11-15 02:55:00,,0828.0,5.01,0.00,21.7,20.3,00.0,30.6,23.5,09.7,0002.3,0016.55,0007.72,0006.75
2022-11-15 02:56:00,,0828.0,5.00,0.00,21.7,20.2,00.0,30.6,23.5,09.7,0002.2,0016.04,0007.71,0006.69
2022-11-15 02:57:00,,0828.0,4.98,0.00,21.7,20.1,00.0,30.6,23.5,09.6,0001.3,0016.53,0007.67,0006.59
2022-11-15 02:58:00,,0828.0,5.00,0.00,21.6,20.1,00.0,30.6,23.4,09.7,0001.3,0018.80,0007.63,0006.52
2022-11-15 02:59:00,,0828.0,5.01,0.00,21.6,20.1,00.0,30.6,23.4,09.8,0001.8,0019.59,0007.62,0006.46
